Карточка аэропорта UAII

Внимание!
Информация на этой странице в стадии наполнения.
Если вы не увидели какой-то информации, или заметили неточность - пожалуйста сообщите нам!
Спасибо!
Команда RU-STAFF
Название аэропортаШымкент
Название аэропорта (англ.)Shymkent
Превышение1389 ft. (423.4 m.)
Координаты42°21.348', 69°28.734'
Высота перехода10000ft
Эшелон переходаFL120, QNH<733:FL130
Коды ответчика3430-3437, 3530-3537
Зона ОрВДШымкент РПИ (UAII)
Данные METARUAII 152130Z 05003MPS CAVOK 27/06 Q1004 NOSIG RMK QFE718/0958
Проноз погоды (TAF)UAII 151658Z 1518/1618 07005G10MPS 9999 NSC TX39/1610Z TN23/1601Z TEMPO 1518/1604 13003G08MPS FM160400 28003G08MPS CAVOK TEMPO 1606/1616 33009G14MPS
NOTAMshow/hide NOTAM
AWOS   TABLE

Информация о ВПП

ВПП Длина ВПП (м.) Покрытие Курс ВПП Частота ILS
103300Железобетон106111.7
283300Железобетон286110.3

Диспетчерские позиции

Позывной Наименование органа УВД Частота
UAII_TWRШымкент Вышка125.9
UAII_APPШымкент-Подход120.3



Спутниковое изображение